Hourly Weather Aligarh

Today, 3 March, Wednesday

Time Temperature Precipitation Wind Pressure Humidity
00:00 +18°C° 0 mm 3 mps 742 mmHg 19%
01:00 +18°C° 0 mm 3 mps 742 mmHg 19%
02:00 +17°C° 0 mm 3 mps 741 mmHg 20%
03:00 +17°C° 0 mm 3 mps 741 mmHg 20%
04:00 +17°C° 0 mm 3 mps 741 mmHg 20%
05:00 +16°C° 0 mm 3 mps 741 mmHg 22%
06:00 +18°C° 0 mm 3 mps 742 mmHg 20%
07:00 +20°C° 0 mm 3 mps 742 mmHg 18%
08:00 +22°C° 0 mm 3 mps 743 mmHg 17%
09:00 +27°C° 0 mm 3 mps 743 mmHg 14%
10:00 +30°C° 0 mm 4 mps 743 mmHg 11%
11:00 +35°C° 0 mm 5 mps 743 mmHg 8%
12:00 +36°C° 0 mm 5 mps 742 mmHg 8%
13:00 +36°C° 0 mm 5 mps 741 mmHg 8%
14:00 +37°C° 0 mm 5 mps 740 mmHg 7%
15:00 +36°C° 0 mm 4 mps 740 mmHg 9%
16:00 +35°C° 0 mm 3 mps 740 mmHg 10%
17:00 +34°C° 0 mm 2 mps 739 mmHg 11%
18:00 +30°C° 0 mm 2 mps 740 mmHg 12%
19:00 +28°C° 0 mm 1 mps 740 mmHg 13%
20:00 +25°C° 0 mm 1 mps 741 mmHg 14%
21:00 +24°C° 0 mm 1 mps 741 mmHg 15%
22:00 +24°C° 0 mm 1 mps 741 mmHg 16%
23:00 +23°C° 0 mm 1 mps 741 mmHg 16%

Tomorrow, 4 March, Thursday

Time Temperature Precipitation Wind Pressure Humidity
00:00 +21°C° 0 mm 2 mps 740 mmHg 17%
01:00 +20°C° 0 mm 2 mps 740 mmHg 17%
02:00 +20°C° 0 mm 2 mps 740 mmHg 18%
03:00 +19°C° 0 mm 2 mps 740 mmHg 18%
04:00 +19°C° 0 mm 2 mps 740 mmHg 18%
05:00 +18°C° 0 mm 2 mps 740 mmHg 18%
06:00 +21°C° 0 mm 1 mps 741 mmHg 17%
07:00 +23°C° 0 mm 1 mps 741 mmHg 16%
08:00 +22°C° 0 mm 0 mps 742 mmHg 15%
09:00 +28°C° 0 mm 1 mps 742 mmHg 13%
10:00 +32°C° 0 mm 1 mps 742 mmHg 10%
11:00 +35°C° 0 mm 1 mps 742 mmHg 8%
12:00 +37°C° 0 mm 2 mps 741 mmHg 7%
13:00 +38°C° 0 mm 3 mps 741 mmHg 6%
14:00 +39°C° 0 mm 3 mps 740 mmHg 6%
15:00 +38°C° 0 mm 3 mps 739 mmHg 7%
16:00 +36°C° 0 mm 2 mps 739 mmHg 8%
17:00 +35°C° 0 mm 2 mps 738 mmHg 9%
18:00 +31°C° 0 mm 2 mps 739 mmHg 10%
19:00 +28°C° 0 mm 1 mps 739 mmHg 12%
20:00 +25°C° 0 mm 1 mps 740 mmHg 13%
21:00 +25°C° 0 mm 1 mps 740 mmHg 14%
22:00 +24°C° 0 mm 1 mps 740 mmHg 15%
23:00 +23°C° 0 mm 1 mps 740 mmHg 16%

Day after tomorrow, 5 March, Friday

Time Temperature Precipitation Wind Pressure Humidity
00:00 +23°C° 0 mm 1 mps 740 mmHg 16%
01:00 +21°C° 0 mm 2 mps 739 mmHg 17%
02:00 +20°C° 0 mm 2 mps 739 mmHg 17%
03:00 +20°C° 0 mm 2 mps 739 mmHg 17%
04:00 +19°C° 0 mm 3 mps 739 mmHg 18%
05:00 +19°C° 0 mm 3 mps 739 mmHg 18%
06:00 +20°C° 0 mm 3 mps 739 mmHg 18%
07:00 +21°C° 0 mm 4 mps 740 mmHg 17%
08:00 +23°C° 0 mm 4 mps 741 mmHg 16%
09:00 +27°C° 0 mm 5 mps 741 mmHg 14%
10:00 +30°C° 0 mm 5 mps 741 mmHg 12%
11:00 +34°C° 0 mm 5 mps 741 mmHg 10%
12:00 +35°C° 0 mm 6 mps 740 mmHg 9%
13:00 +38°C° 0 mm 6 mps 740 mmHg 8%
14:00 +39°C° 0 mm 6 mps 739 mmHg 7%
15:00 +37°C° 0 mm 5 mps 739 mmHg 7%
16:00 +36°C° 0 mm 4 mps 738 mmHg 8%
17:00 +35°C° 0 mm 4 mps 738 mmHg 8%
18:00 +32°C° 0 mm 4 mps 738 mmHg 9%
19:00 +28°C° 0 mm 4 mps 739 mmHg 10%
20:00 +25°C° 0 mm 4 mps 739 mmHg 10%
21:00 +25°C° 0 mm 4 mps 739 mmHg 11%
22:00 +23°C° 0 mm 4 mps 739 mmHg 12%
23:00 +22°C° 0 mm 4 mps 739 mmHg 13%

6 March, Saturday

Time Temperature Precipitation Wind Pressure Humidity
00:00 +21°C° 0 mm 4 mps 739 mmHg 14%
01:00 +20°C° 0 mm 4 mps 739 mmHg 15%
02:00 +19°C° 0 mm 4 mps 739 mmHg 15%
03:00 +19°C° 0 mm 4 mps 739 mmHg 15%
04:00 +19°C° 0 mm 3 mps 739 mmHg 15%
05:00 +19°C° 0 mm 3 mps 739 mmHg 16%
06:00 +21°C° 0 mm 3 mps 740 mmHg 14%
07:00 +24°C° 0 mm 3 mps 740 mmHg 13%
08:00 +26°C° 0 mm 3 mps 741 mmHg 12%
09:00 +29°C° 0 mm 4 mps 742 mmHg 10%
10:00 +33°C° 0 mm 5 mps 742 mmHg 8%
11:00 +37°C° 0 mm 5 mps 742 mmHg 6%
12:00 +38°C° 0 mm 6 mps 741 mmHg 5%
13:00 +39°C° 0 mm 6 mps 740 mmHg 4%
14:00 +40°C° 0 mm 6 mps 739 mmHg 4%
15:00 +39°C° 0 mm 5 mps 739 mmHg 4%
16:00 +37°C° 0 mm 4 mps 738 mmHg 5%
17:00 +36°C° 0 mm 3 mps 738 mmHg 6%
18:00 +32°C° 0 mm 2 mps 738 mmHg 7%
19:00 +29°C° 0 mm 2 mps 739 mmHg 8%
20:00 +27°C° 0 mm 2 mps 739 mmHg 9%
21:00 +26°C° 0 mm 1 mps 739 mmHg 10%
22:00 +25°C° 0 mm 1 mps 739 mmHg 11%
23:00 +24°C° 0 mm 1 mps 739 mmHg 12%

7 March, Sunday

Time Temperature Precipitation Wind Pressure Humidity
00:00 +23°C° 0 mm 1 mps 739 mmHg 13%
01:00 +23°C° 0 mm 1 mps 739 mmHg 13%
02:00 +22°C° 0 mm 1 mps 738 mmHg 13%
03:00 +22°C° 0 mm 1 mps 738 mmHg 14%
04:00 +22°C° 0 mm 1 mps 738 mmHg 14%
05:00 +21°C° 0 mm 1 mps 738 mmHg 14%
06:00 +23°C° 0 mm 1 mps 739 mmHg 13%
07:00 +23°C° 0 mm 0 mps 740 mmHg 12%
08:00 +25°C° 0 mm 0 mps 740 mmHg 11%
09:00 +30°C° 0 mm 1 mps 740 mmHg 9%
10:00 +35°C° 0 mm 2 mps 740 mmHg 7%
11:00 +38°C° 0 mm 3 mps 740 mmHg 6%
12:00 +40°C° 0 mm 4 mps 739 mmHg 6%
13:00 +41°C° 0 mm 4 mps 738 mmHg 7%
14:00 +42°C° 0 mm 5 mps 737 mmHg 8%
15:00 +42°C° 0 mm 5 mps 737 mmHg 8%
16:00 +41°C° 0 mm 5 mps 736 mmHg 9%
17:00 +40°C° 0 mm 5 mps 736 mmHg 10%
18:00 +36°C° 0 mm 4 mps 736 mmHg 12%
19:00 +34°C° 0 mm 4 mps 737 mmHg 14%
20:00 +30°C° 0 mm 3 mps 737 mmHg 16%
21:00 +29°C° 0 mm 3 mps 737 mmHg 17%
22:00 +28°C° 0 mm 3 mps 738 mmHg 18%
23:00 +27°C° 0 mm 3 mps 738 mmHg 19%

8 March, Monday

Time Temperature Precipitation Wind Pressure Humidity
00:00 +26°C° 0 mm 2 mps 738 mmHg 20%
01:00 +25°C° 0 mm 2 mps 738 mmHg 22%
02:00 +24°C° 0 mm 2 mps 738 mmHg 23%
03:00 +23°C° 0 mm 2 mps 738 mmHg 23%
04:00 +21°C° 0 mm 3 mps 739 mmHg 23%
05:00 +21°C° 0 mm 3 mps 739 mmHg 24%
06:00 +22°C° 0 mm 3 mps 740 mmHg 22%
07:00 +25°C° 0 mm 3 mps 740 mmHg 20%
08:00 +26°C° 0 mm 3 mps 741 mmHg 18%
09:00 +29°C° 0 mm 3 mps 741 mmHg 16%
10:00 +33°C° 0 mm 3 mps 742 mmHg 15%
11:00 +35°C° 0 mm 3 mps 742 mmHg 13%
12:00 +36°C° 0 mm 3 mps 741 mmHg 12%
13:00 +38°C° 0 mm 2 mps 740 mmHg 11%
14:00 +39°C° 0 mm 2 mps 739 mmHg 10%
15:00 +38°C° 0 mm 2 mps 739 mmHg 10%
16:00 +38°C° 0 mm 2 mps 739 mmHg 10%
17:00 +37°C° 0 mm 2 mps 738 mmHg 10%
18:00 +34°C° 0 mm 2 mps 739 mmHg 11%
19:00 +30°C° 0 mm 3 mps 739 mmHg 13%
20:00 +27°C° 0 mm 3 mps 739 mmHg 15%
21:00 +27°C° 0 mm 2 mps 739 mmHg 16%
22:00 +26°C° 0 mm 2 mps 740 mmHg 16%
23:00 +25°C° 0 mm 2 mps 740 mmHg 17%
Show more